Regional Weather Roundup
Issued by NWS Jackson, KY

Home | Current Version | Previous Version | Text Only | Print | Product List | Glossary Off
Versions: 1 2 3 4 5 6 7 8 9 10 11 12 13 14 15 16 17 18 19 20 21 22 23 24 25 26 27 28 29 30 31 32 33 34 35 36 37 38 39 40 41 42 43 44 45 46 47 48 49 50

000
ASUS43 KJKL 240105
RWRJKL

EAST KENTUCKY HOURLY WEATHER ROUNDUP
NATIONAL WEATHER SERVICE JACKSON KY
800 PM EST SUN NOV 23 2014

NOTE: "FAIR" INDICATES FEW OR NO CLOUDS BELOW 12,000 FEET WITH
NO SIGNIFICANT WEATHER AND/OR OBSTRUCTIONS TO VISIBILITY.

* THESE REPORTS ARE NOT UNDER NWS QUALITY CONTROL AND MAY NOT
  REPORT WEATHER SUCH AS PRECIPITATION AND FOG.

KYZ079-080-083-085-087-088-110-112-115-119-120-240200
...EASTERN KENTUCKY...

CITY           SKY/WX    TMP DP  RH WIND       PRES   REMARKS
JACKSON        CLOUDY    58  52  80 SE10G20   29.51F
LONDON         LGT RAIN  58  52  80 SE14G24   29.48F
SOMERSET*      CLOUDY    55  54  94 S13G18    29.48S
MONTICELLO*    CLOUDY    62  56  81 S21G29    29.48S
MIDDLESBORO*   CLOUDY    56  53  89 S6        29.56F
HARLAN APT*    CLOUDY    55  54  94 E6        29.57F
BIG SANDY*     DRIZZLE   59  53  82 SE13G18   29.58F
MOREHEAD APT*  LGT RAIN  55  52  88 SE14G22   29.50F
$$

KYZ035-036-041-042-044-050-067-078-099-240200
...CENTRAL KENTUCKY...

CITY           SKY/WX    TMP DP  RH WIND       PRES   REMARKS
MT STERLING*   LGT RAIN  54  54 100 SE12G21   29.46F
FLEMING/MASON* LGT RAIN  54  52  93 SE21G26   29.47F
DANVILLE*      LGT RAIN  55  54  94 S13G23    29.42F
RICHMOND*      CLOUDY    57  52  82 SE22G28   29.43F
LEXINGTON      LGT RAIN  55  53  93 SE14G24   29.42F
FRANKFORT      CLOUDY    56  53  90 SE12      29.39F
$$

KYZ091>093-OHZ055-061-077-WVZ005-015-034-035-042-240200
...SOUTHERN OHIO/WEST VIRGINIA...

CITY           SKY/WX    TMP DP  RH WIND       PRES   REMARKS
COVINGTON      HVY RAIN  55  52  88 SE25G36   29.41F FOG
COLUMBUS       CLOUDY    53  48  83 SE17      29.54F
DAYTON         RAIN      55  53  93 SE25G32   29.44F FOG
WILMINGTON     RAIN      54  51  90 SE21G31   29.48F FOG
HUNTINGTON     HVY RAIN  54  52  93 SE7       29.56F FOG
CHARLESTON     LGT RAIN  59  51  75 SE12G23   29.62F
PINEVILLE*     RAIN      57  56  94 MISG      29.72F
BECKLEY        LGT RAIN  52  48  86 SE23G38   29.73F
BLUEFIELD      RAIN      54  48  80 SE12G28   29.75F
$$

VAZ002-007-008-TNZ017-027-036-066-071-240200
...SOUTHWEST VIRGINIA/EAST TENNESSEE...

CITY           SKY/WX    TMP DP  RH WIND       PRES   REMARKS
WISE*          RAIN      54  54 100 SE12G20   29.63F
JONESVILLE*    CLOUDY    54  54 100 CALM      29.61F
ABINGDON*      RAIN      61  52  71 S14G25    29.70S
BRISTOL        RAIN      58  51  78 SE9       29.69S
KNOXVILLE      CLOUDY    59  55  87 S7        29.55R
OAK RIDGE      CLOUDY    53  53 100 SW3       29.58R FOG
CROSSVILLE     CLOUDY    58  53  84 S16G36    29.53F
NASHVILLE      CLOUDY    59  57  93 S17G25    29.37F FOG
$$

...KEY TO REMARKS...
VSB - VISIBILITY IN MILES
WCI - WIND CHILL INDEX
HX  - HEAT INDEX

$$


USA.gov is the U.S. government's official web portal to all federal, state and local government web resources and services.